Location: Ełk
(53.8214°N, 22.3622°E)
Time: 07:20:11
(UTC+02:00)

ISS - Visible Passes

Search period start: 27 May 2018 00:00
Search period end: 06 June 2018 00:00
Orbit: 402 x 407 km, 51.6° (Epoch: 27 May)

Date Brightness Start Highest point End Pass type
(mag) Time Alt. Az. Time Alt. Az. Time Alt. Az.
27 May -3.0 00:23:41 10° W 00:26:26 31° SSW 00:26:26 31° SSW visible
27 May -3.8 21:55:03 10° WSW 21:58:17 59° S 22:01:31 10° E visible
27 May -3.4 23:31:26 10° W 23:34:32 40° SSW 23:35:43 28° SSE visible
28 May -3.6 22:39:14 10° W 22:42:25 50° SSW 22:45:05 14° ESE visible
29 May -2.1 00:15:57 10° W 00:17:42 19° SW 00:17:42 19° SW visible
29 May -3.7 21:47:01 10° W 21:50:16 57° S 21:53:29 10° ESE visible
29 May -2.8 23:23:33 10° W 23:26:25 28° SSW 23:27:06 26° S visible
30 May -3.2 22:31:15 10° W 22:34:19 37° SSW 22:36:31 16° SE visible
31 May -1.4 00:08:45 10° WSW 00:09:09 11° WSW 00:09:09 11° WSW visible
31 May -3.4 21:38:59 10° W 21:42:10 47° SSW 21:45:20 10° ESE visible
31 May -2.1 23:15:50 10° WSW 23:18:09 18° SSW 23:18:35 17° SSW visible
01 Jun -2.5 22:23:19 10° W 22:26:05 25° SSW 22:28:04 15° SSE visible
02 Jun -1.4 23:09:05 10° SW 23:09:43 10° SW 23:10:11 10° SSW visible
03 Jun -1.8 22:15:38 10° WSW 22:17:43 16° SW 22:19:41 10° S visible
